Weather History for KSNS - January, 2012

Change the Weather History Date:

Wednesday, January 18, 2012

  Actual Average Record
Temperature  
Mean Temperature 43 °F 51 °F  
Max Temperature 57 °F 61 °F 81 °F (1961)
Min Temperature 29 °F 41 °F 22 °F (1943)
Degree Days  
Heating Degree Days 22 14  
Month to date heating degree days 234 252  
Since 1 July heating degree days 1270 1305  
Cooling Degree Days 0 0  
Month to date cooling degree days 0 0  
Year to date cooling degree days 0 0  
Moisture  
Dew Point 27 °F    
Average Humidity 52    
Maximum Humidity 76    
Minimum Humidity 27    
Precipitation  
Precipitation 0.00 in 0.08 in 0.82 in (1969)
Month to date precipitation 0.00 1.49  
Year to date precipitation 0.00 1.49  
Since 1 July precipitation 3.31 5.60  
Sea Level Pressure  
Sea Level Pressure 30.38 in    
Wind  
Wind Speed 4 mph (South)    
Max Wind Speed 12 mph    
Max Gust Speed 14 mph    
Visibility 10 miles    
Events      
T = Trace of Precipitation, MM = Missing Value Source: NWS Daily Summary

Daily Weather History Graph

Daily Weather History Graph

Search for Another Location

Airport or City:

Trip Planner

Search our weather history database for the weather conditions in past years. The results will help you decide how hot, cold, wet, or windy it might be!

Date:

Astronomy

Jan. 18, 2012 Rise Set
Actual Time 7:17 AM PST 5:16 PM PST
Civil Twilight 6:48 AM PST 5:44 PM PST
Nautical Twilight 6:17 AM PST 6:16 PM PST
Astronomical Twilight 5:46 AM PST 6:47 PM PST
Moon 2:51 AM PST (1/18) 1:01 PM PST (1/18)
Length of Visible Light 10h 55m
Length of Day
9h 59m
Waning Crescent, 23% of the Moon is Illuminated
Jan 18
Waning Crescent
Jan 22
New
Jan 30
First Quarter
Feb 7
Full
Feb 14
Last Quarter

Hourly Weather History & Observations

Time (PST) Temp. Windchill Dew Point Humidity Pressure Visibility Wind Dir Wind Speed Gust Speed Precip Events Conditions
12:53 AM 34.0 °F - 26.1 °F 73% 30.40 in 10.0 mi Calm Calm - N/A   Clear
1:53 AM 37.9 °F 31.5 °F 26.1 °F 62% 30.40 in 10.0 mi East 9.2 mph - N/A   Clear
2:53 AM 37.0 °F 32.4 °F 25.0 °F 62% 30.40 in 10.0 mi East 5.8 mph - N/A   Clear
3:53 AM 36.0 °F 29.6 °F 21.9 °F 57% 30.40 in 10.0 mi ESE 8.1 mph - N/A   Clear
4:53 AM 32.0 °F - 21.0 °F 64% 30.41 in 10.0 mi Calm Calm - N/A   Clear
5:53 AM 33.1 °F - 19.9 °F 59% 30.41 in 10.0 mi Calm Calm - N/A   Clear
6:53 AM 30.0 °F 26.5 °F 19.9 °F 66% 30.41 in 10.0 mi SSE 3.5 mph - N/A   Clear
7:53 AM 30.0 °F - 19.9 °F 66% 30.42 in 10.0 mi Calm Calm - N/A   Clear
8:53 AM 35.1 °F 29.3 °F 21.0 °F 57% 30.45 in 10.0 mi ESE 6.9 mph - N/A   Clear
9:53 AM 41.0 °F 35.2 °F 21.9 °F 47% 30.46 in 10.0 mi ESE 9.2 mph - N/A   Clear
10:53 AM 46.9 °F - 23.0 °F 39% 30.46 in 10.0 mi ESE 4.6 mph - N/A   Clear
11:53 AM 51.1 °F - 24.1 °F 35% 30.43 in 10.0 mi Calm Calm - N/A   Clear
12:53 PM 55.0 °F - 23.0 °F 29% 30.40 in 10.0 mi West 5.8 mph - N/A   Clear
1:53 PM 55.9 °F - 23.0 °F 28% 30.38 in 10.0 mi WSW 5.8 mph - N/A   Clear
2:53 PM 55.9 °F - 26.1 °F 32% 30.36 in 10.0 mi WSW 9.2 mph - N/A   Clear
3:53 PM 55.0 °F - 33.1 °F 43% 30.35 in 10.0 mi West 9.2 mph - N/A   Clear
4:53 PM 53.1 °F - 37.0 °F 55% 30.34 in 10.0 mi West 5.8 mph - N/A   Clear
5:53 PM 51.1 °F - 39.9 °F 66% 30.34 in 10.0 mi West 4.6 mph - N/A   Clear
6:53 PM 46.0 °F 44.8 °F 36.0 °F 68% 30.35 in 10.0 mi North 3.5 mph - N/A   Clear
7:53 PM 44.1 °F - 36.0 °F 73% 30.33 in 10.0 mi Calm Calm - N/A   Clear
8:53 PM 43.0 °F - 34.0 °F 71% 30.32 in 10.0 mi Calm Calm - N/A   Clear
9:53 PM 39.9 °F - 32.0 °F 73% 30.32 in 10.0 mi Calm Calm - N/A   Clear
10:53 PM 41.0 °F - 33.1 °F 73% 30.33 in 10.0 mi Calm Calm - N/A   Clear
11:53 PM 34.0 °F - 28.9 °F 82% 30.32 in 10.0 mi Calm Calm - N/A   Clear